STARLINK-37561, 69821

Orbit data source: Space-Track

STARLINK-37561, 69821 is a payload satellite owned by SpaceX/Seattle (US) in LEO that was launched on Sun, 05 Jul 2026 UTC via an FALCON 9 launch vehicle from the Air Force Eastern Test Range (AFETR). Payload-class satellites include a variety of spacecraft equipped with specific instruments for various scientific and technological missions. These include communications satellites like Starlink; space stations such as the ISS; scientific satellites like the Hubble; Earth observation satellites from companies like Planet Labs, Umbra, and HawkEye 360; GPS; miniature CubeSats for education and research; and military/defense satellites.

Loading next visibility...
Identifier
69821, 2026-154C
Orbit
LEO
Country
Flag of USUS
Related business
Manufacturer
SpaceX/Seattle
Mission
Operational spacecraft
Bus & Motor
STARLINK V2MO, Unknown motor
Mass
575 kg wet, ~530 kg dry
Launch date (UTC)
2026-07-05 (2 months ago)
Launch vehicle
FALCON 9
Launch site
Air Force Eastern Test Range (AFETR)
Object type
Payload
Rocket body
Debris
Shape & HBR
BOX + PAN, 17.7 m
Radar Cross Section
Large (>1 m²)

Expand to show TLE details & history
Last TLE update: 22 hours ago

TLE from 22 hours ago
0 STARLINK-37561
1 69821U 26154C   26236.01854268  .00021168  00000-0  61557-3 0  9992
2 69821  53.1608  99.8538 0000833  82.8204 277.2894 15.35423435  9026
Epoch: 2026-08-24T00:26Z
TLE epoch observation values (Epoch: 2026-08-24T00:26:42.087Z)
Latitude
-0°
Longitude
120.87217°
Altitude
460.493 km
Speed
7.638 km/s
True Right ascension
06h 39m 24s
True Declination
0° 00' 00"
Sunlit
Object was in daylight at epoch
Visualization orbit readout
Latitude
Unknown
Longitude
Unknown
Altitude
Unknown
Speed
Unknown
Apparent Right ascension
Unknown
Apparent Declination
Unknown
Sunlit
N/A
Visualization observer readout
Local Sidereal Time
13:48:24
Azimuth
Unknown
Elevation
Unknown
Doppler factor
Unknown
Orbital elements
Apogee altitude
460.49 km
Perigee altitude
459.35 km
Semi-major axis
6,838.057 km
Eccentricity
0.00008
Inclination
53.1608°
RAAN
99.8538°
Arg. of periapsis
82.8204°
True anomaly
277.27993°
Mean anomaly
277.2894°
Eccentric anomaly
277.28467°
Mean motion
3.83835 °/min
Orbital period
93.79 mins
BSTAR
0.00061557
Loading maneuver chart data...
Computing Atmospheric mass density...
Loading historical data...
Loading historical data...
Loading historical data...
Loading historical data...
Loading historical data...
Loading historical data...
Loading historical data...

Documentation

Showing up to 5 results
|